Data supplied by UK-AIR on 27/3/2018
All Data GMT hour ending 
Status: R =Ratified P=Provisional,P*=As supplied
,,Ladybower,,,,,,,,,,,,,,,,,,,,,,,
Date,time,"Nitric oxide",status,unit,"Nitrogen dioxide",status,unit,"Nitrogen oxides as nitrogen dioxide",status,unit,"Ozone",status,unit,"Sulphur dioxide",status,unit
 
01-01-2017,01:00,0.50017,R,ugm-3,0.50426,R,ugm-3,1.27118,R,ugm-3,70.64778,R,ugm-3,2.60325,R,ugm-3
01-01-2017,02:00,0.99971,R,ugm-3,0.56419,R,ugm-3,2.09706,R,ugm-3,69.51688,R,ugm-3,3.00416,R,ugm-3
01-01-2017,03:00,0.90616,R,ugm-3,0.89840,R,ugm-3,2.28783,R,ugm-3,65.00993,R,ugm-3,2.40279,R,ugm-3
01-01-2017,04:00,0.96822,R,ugm-3,1.32823,R,ugm-3,2.81281,R,ugm-3,64.06197,R,ugm-3,2.85382,R,ugm-3
01-01-2017,05:00,1.03152,R,ugm-3,1.61224,R,ugm-3,3.19388,R,ugm-3,61.51745,R,ugm-3,2.85382,R,ugm-3
01-01-2017,06:00,0.59372,R,ugm-3,1.18766,R,ugm-3,2.09801,R,ugm-3,65.80821,R,ugm-3,2.92899,R,ugm-3
01-01-2017,07:00,0.74963,R,ugm-3,0.80516,R,ugm-3,1.95458,R,ugm-3,69.94929,R,ugm-3,2.32829,R,ugm-3
01-01-2017,08:00,0.90616,R,ugm-3,1.23261,R,ugm-3,2.62204,R,ugm-3,75.38757,R,ugm-3,3.07933,R,ugm-3
01-01-2017,09:00,0.81230,R,ugm-3,1.61463,R,ugm-3,2.86014,R,ugm-3,77.78241,R,ugm-3,2.62830,R,ugm-3
01-01-2017,10:00,0.87498,R,ugm-3,1.37509,R,ugm-3,2.71671,R,ugm-3,79.97768,R,ugm-3,2.10211,R,ugm-3
01-01-2017,11:00,0.65608,R,ugm-3,1.90198,R,ugm-3,2.90796,R,ugm-3,76.63488,R,ugm-3,2.17795,R,ugm-3
01-01-2017,12:00,0.62490,R,ugm-3,1.99761,R,ugm-3,2.95577,R,ugm-3,72.64348,R,ugm-3,2.85382,R,ugm-3
01-01-2017,13:00,1.03121,R,ugm-3,2.23189,R,ugm-3,3.81305,R,ugm-3,68.35273,R,ugm-3,3.38001,R,ugm-3
01-01-2017,14:00,0.90648,R,ugm-3,2.61439,R,ugm-3,4.00430,R,ugm-3,68.45251,R,ugm-3,3.07933,R,ugm-3
01-01-2017,15:00,0.74963,R,ugm-3,2.56897,R,ugm-3,3.71838,R,ugm-3,66.00778,R,ugm-3,2.77865,R,ugm-3
01-01-2017,16:00,0.93735,R,ugm-3,3.28137,R,ugm-3,4.71862,R,ugm-3,63.76262,R,ugm-3,2.25245,R,ugm-3
01-01-2017,17:00,0.56253,R,ugm-3,4.57183,R,ugm-3,5.43437,R,ugm-3,59.92089,R,ugm-3,2.70347,R,ugm-3
01-01-2017,18:00,0.68726,R,ugm-3,4.85727,R,ugm-3,5.91106,R,ugm-3,59.22240,R,ugm-3,2.77865,R,ugm-3
01-01-2017,19:00,0.78081,R,ugm-3,4.04637,R,ugm-3,5.24360,R,ugm-3,61.31788,R,ugm-3,1.87727,R,ugm-3
01-01-2017,20:00,0.87467,R,ugm-3,3.52043,R,ugm-3,4.86158,R,ugm-3,65.60864,R,ugm-3,0.52619,R,ugm-3
01-01-2017,21:00,0.59372,R,ugm-3,3.37939,R,ugm-3,4.28974,R,ugm-3,66.20735,R,ugm-3,1.42624,R,ugm-3
01-01-2017,22:00,0.74963,R,ugm-3,3.23595,R,ugm-3,4.38536,R,ugm-3,66.50670,R,ugm-3,2.62830,R,ugm-3
01-01-2017,23:00,0.87498,R,ugm-3,4.18838,R,ugm-3,5.52999,R,ugm-3,66.45681,R,ugm-3,2.55313,R,ugm-3
01-01-2017,24:00,0.93735,R,ugm-3,2.42362,R,ugm-3,3.86086,R,ugm-3,68.40262,R,ugm-3,1.95177,R,ugm-3
02-01-2017,01:00,0.79328,R,ugm-3,1.71232,R,ugm-3,2.92867,R,ugm-3,67.92032,R,ugm-3,2.49238,R,ugm-3
02-01-2017,02:00,0.97040,R,ugm-3,1.80779,R,ugm-3,3.29572,R,ugm-3,,,,1.89456,R,ugm-3
02-01-2017,03:00,0.72032,R,ugm-3,2.28687,R,ugm-3,3.39134,R,ugm-3,63.86240,R,ugm-3,0.97256,R,ugm-3
02-01-2017,04:00,0.68882,R,ugm-3,1.47597,R,ugm-3,2.53215,R,ugm-3,61.76692,R,ugm-3,1.34642,R,ugm-3
02-01-2017,05:00,0.84505,R,ugm-3,0.94956,R,ugm-3,2.24528,R,ugm-3,61.91659,R,ugm-3,1.57060,R,ugm-3
02-01-2017,06:00,0.59496,R,ugm-3,1.47597,R,ugm-3,2.38823,R,ugm-3,59.62154,R,ugm-3,1.86928,R,ugm-3
02-01-2017,07:00,0.65764,R,ugm-3,1.47549,R,ugm-3,2.48386,R,ugm-3,57.22670,R,ugm-3,1.42092,R,ugm-3
02-01-2017,08:00,0.68851,R,ugm-3,0.71145,R,ugm-3,1.76715,R,ugm-3,57.97509,R,ugm-3,2.31831,R,ugm-3
02-01-2017,09:00,0.75119,R,ugm-3,0.66316,R,ugm-3,1.81496,R,ugm-3,57.72562,R,ugm-3,1.71894,R,ugm-3
02-01-2017,10:00,0.75119,R,ugm-3,0.32943,R,ugm-3,1.48123,R,ugm-3,55.23100,R,ugm-3,2.39281,R,ugm-3
02-01-2017,11:00,0.81418,R,ugm-3,0.56658,R,ugm-3,1.81496,R,ugm-3,59.62154,R,ugm-3,3.06536,R,ugm-3
02-01-2017,12:00,0.84505,R,ugm-3,1.14033,R,ugm-3,2.43605,R,ugm-3,62.26584,R,ugm-3,1.71961,R,ugm-3
02-01-2017,13:00,1.94111,R,ugm-3,6.81567,R,ugm-3,9.79200,R,ugm-3,54.58240,R,ugm-3,1.27191,R,ugm-3
02-01-2017,14:00,3.34994,R,ugm-3,14.73390,R,ugm-3,19.87040,R,ugm-3,48.54540,R,ugm-3,2.24380,R,ugm-3
02-01-2017,15:00,5.29105,R,ugm-3,28.76161,R,ugm-3,36.87443,R,ugm-3,36.17206,R,ugm-3,3.06536,R,ugm-3
02-01-2017,16:00,3.31844,R,ugm-3,32.16825,R,ugm-3,37.25646,R,ugm-3,33.27830,R,ugm-3,3.21437,R,ugm-3
02-01-2017,17:00,0.90772,R,ugm-3,13.31961,R,ugm-3,14.71143,R,ugm-3,50.79057,R,ugm-3,2.61766,R,ugm-3
02-01-2017,18:00,0.93922,R,ugm-3,16.51970,R,ugm-3,17.95981,R,ugm-3,41.84318,R,ugm-3,2.16797,R,ugm-3
02-01-2017,19:00,0.84536,R,ugm-3,12.98540,R,ugm-3,14.28159,R,ugm-3,46.64949,R,ugm-3,2.39281,R,ugm-3
02-01-2017,20:00,0.87623,R,ugm-3,10.07218,R,ugm-3,11.41571,R,ugm-3,47.39788,R,ugm-3,2.31764,R,ugm-3
02-01-2017,21:00,0.90772,R,ugm-3,13.79725,R,ugm-3,15.18908,R,ugm-3,41.16131,R,ugm-3,1.94445,R,ugm-3
02-01-2017,22:00,0.78268,R,ugm-3,13.70211,R,ugm-3,14.90220,R,ugm-3,39.31529,R,ugm-3,2.69217,R,ugm-3
02-01-2017,23:00,0.81386,R,ugm-3,10.83623,R,ugm-3,12.08413,R,ugm-3,46.59960,R,ugm-3,2.31831,R,ugm-3
02-01-2017,24:00,0.78237,R,ugm-3,11.98325,R,ugm-3,13.18286,R,ugm-3,47.04863,R,ugm-3,2.54249,R,ugm-3
03-01-2017,01:00,0.96333,R,ugm-3,10.71128,R,ugm-3,12.18836,R,ugm-3,48.76160,R,ugm-3,2.77621,R,ugm-3
03-01-2017,02:00,0.97321,R,ugm-3,10.28160,R,ugm-3,11.77383,R,ugm-3,51.75515,R,ugm-3,2.57841,R,ugm-3
03-01-2017,03:00,1.00501,R,ugm-3,7.60028,R,ugm-3,9.14127,R,ugm-3,60.66928,R,ugm-3,2.15666,R,ugm-3
03-01-2017,04:00,0.87935,R,ugm-3,4.29930,R,ugm-3,5.64761,R,ugm-3,67.10541,R,ugm-3,3.12390,R,ugm-3
03-01-2017,05:00,0.81667,R,ugm-3,3.43820,R,ugm-3,4.69041,R,ugm-3,68.65208,R,ugm-3,2.45402,R,ugm-3
03-01-2017,06:00,0.81636,R,ugm-3,1.66818,R,ugm-3,2.91991,R,ugm-3,73.24219,R,ugm-3,1.85930,R,ugm-3
03-01-2017,07:00,0.94202,R,ugm-3,2.71910,R,ugm-3,4.16351,R,ugm-3,71.74542,R,ugm-3,0.66988,R,ugm-3
03-01-2017,08:00,0.53384,R,ugm-3,4.92421,R,ugm-3,5.74276,R,ugm-3,68.95144,R,ugm-3,0.29736,R,ugm-3
03-01-2017,09:00,0.84785,R,ugm-3,7.02748,R,ugm-3,8.32750,R,ugm-3,69.55015,R,ugm-3,1.56128,R,ugm-3
03-01-2017,10:00,0.94234,R,ugm-3,10.13721,R,ugm-3,11.58210,R,ugm-3,65.15961,R,ugm-3,2.00831,R,ugm-3
03-01-2017,11:00,1.19335,R,ugm-3,8.22088,R,ugm-3,10.05067,R,ugm-3,66.50670,R,ugm-3,2.38018,R,ugm-3
03-01-2017,12:00,1.09918,R,ugm-3,6.11570,R,ugm-3,7.80109,R,ugm-3,68.55230,R,ugm-3,2.67687,R,ugm-3
03-01-2017,13:00,1.00501,R,ugm-3,5.49461,R,ugm-3,7.03561,R,ugm-3,68.60219,R,ugm-3,2.38018,R,ugm-3
03-01-2017,14:00,0.84816,R,ugm-3,5.83121,R,ugm-3,7.13171,R,ugm-3,69.00133,R,ugm-3,2.60303,R,ugm-3
03-01-2017,15:00,0.84785,R,ugm-3,5.83121,R,ugm-3,7.13123,R,ugm-3,67.55445,R,ugm-3,2.08215,R,ugm-3
03-01-2017,16:00,0.78518,R,ugm-3,5.83169,R,ugm-3,7.03561,R,ugm-3,65.15961,R,ugm-3,2.60303,R,ugm-3
03-01-2017,17:00,0.91084,R,ugm-3,6.16542,R,ugm-3,7.56203,R,ugm-3,65.10971,R,ugm-3,3.12390,R,ugm-3
03-01-2017,18:00,0.97352,R,ugm-3,6.59573,R,ugm-3,8.08844,R,ugm-3,65.10971,R,ugm-3,2.45468,R,ugm-3
03-01-2017,19:00,0.84754,R,ugm-3,6.74061,R,ugm-3,8.04015,R,ugm-3,65.30928,R,ugm-3,3.34675,R,ugm-3
03-01-2017,20:00,0.84816,R,ugm-3,7.74515,R,ugm-3,9.04565,R,ugm-3,63.61294,R,ugm-3,3.57026,R,ugm-3
03-01-2017,21:00,0.84785,R,ugm-3,5.59167,R,ugm-3,6.89169,R,ugm-3,61.01853,R,ugm-3,2.60303,R,ugm-3
03-01-2017,22:00,0.87935,R,ugm-3,5.87855,R,ugm-3,7.22686,R,ugm-3,64.91014,R,ugm-3,2.82588,R,ugm-3
03-01-2017,23:00,0.69069,R,ugm-3,4.15778,R,ugm-3,5.21682,R,ugm-3,68.00348,R,ugm-3,2.37951,R,ugm-3
03-01-2017,24:00,0.87904,R,ugm-3,3.29476,R,ugm-3,4.64259,R,ugm-3,69.00133,R,ugm-3,2.60369,R,ugm-3
04-01-2017,01:00,0.88059,R,ugm-3,3.12630,R,ugm-3,4.47653,R,ugm-3,67.38814,R,ugm-3,2.07018,R,ugm-3
04-01-2017,02:00,0.88059,R,ugm-3,2.53454,R,ugm-3,3.88477,R,ugm-3,66.35703,R,ugm-3,2.07107,R,ugm-3
04-01-2017,03:00,0.88059,R,ugm-3,2.58188,R,ugm-3,3.93210,R,ugm-3,64.51100,R,ugm-3,2.14535,R,ugm-3
04-01-2017,04:00,1.00657,R,ugm-3,2.19698,R,ugm-3,3.74037,R,ugm-3,63.96219,R,ugm-3,2.66356,R,ugm-3
04-01-2017,05:00,0.78611,R,ugm-3,1.81544,R,ugm-3,3.02079,R,ugm-3,65.20950,R,ugm-3,3.18111,R,ugm-3
04-01-2017,06:00,0.88059,R,ugm-3,1.67057,R,ugm-3,3.02079,R,ugm-3,67.75402,R,ugm-3,2.88508,R,ugm-3
04-01-2017,07:00,0.91209,R,ugm-3,0.95147,R,ugm-3,2.34998,R,ugm-3,69.00133,R,ugm-3,2.88508,R,ugm-3
04-01-2017,08:00,0.72343,R,ugm-3,0.95243,R,ugm-3,2.06168,R,ugm-3,67.85380,R,ugm-3,3.25495,R,ugm-3
04-01-2017,09:00,0.50329,R,ugm-3,1.76954,R,ugm-3,2.54123,R,ugm-3,61.41767,R,ugm-3,2.58972,R,ugm-3
04-01-2017,10:00,0.75462,R,ugm-3,3.35070,R,ugm-3,4.50776,R,ugm-3,61.56735,R,ugm-3,1.25794,R,ugm-3
04-01-2017,11:00,1.03807,R,ugm-3,5.26559,R,ugm-3,6.85727,R,ugm-3,64.56090,R,ugm-3,,,
04-01-2017,12:00,1.47899,R,ugm-3,4.49390,R,ugm-3,6.76164,R,ugm-3,61.96649,R,ugm-3,1.38101,R,ugm-3
04-01-2017,13:00,1.19554,R,ugm-3,3.44202,R,ugm-3,5.27515,R,ugm-3,66.15746,R,ugm-3,1.70098,R,ugm-3
04-01-2017,14:00,1.13255,R,ugm-3,3.87425,R,ugm-3,5.61080,R,ugm-3,64.91014,R,ugm-3,1.77482,R,ugm-3
04-01-2017,15:00,0.97508,R,ugm-3,2.38919,R,ugm-3,3.88429,R,ugm-3,55.28089,R,ugm-3,2.14535,R,ugm-3
04-01-2017,16:00,0.81761,R,ugm-3,3.92588,R,ugm-3,5.17953,R,ugm-3,51.53895,R,ugm-3,1.84933,R,ugm-3
04-01-2017,17:00,0.88059,R,ugm-3,6.27491,R,ugm-3,7.62514,R,ugm-3,48.34583,R,ugm-3,2.58972,R,ugm-3
04-01-2017,18:00,0.94358,R,ugm-3,8.28878,R,ugm-3,9.73558,R,ugm-3,41.51056,R,ugm-3,1.77549,R,ugm-3
04-01-2017,19:00,0.88059,R,ugm-3,8.38536,R,ugm-3,9.73558,R,ugm-3,49.04433,R,ugm-3,,,
04-01-2017,20:00,0.97508,R,ugm-3,7.42480,R,ugm-3,8.91990,R,ugm-3,49.54325,R,ugm-3,,,
04-01-2017,21:00,0.81761,R,ugm-3,6.70666,R,ugm-3,7.96030,R,ugm-3,47.19831,R,ugm-3,1.67725,R,ugm-3
04-01-2017,22:00,0.84910,R,ugm-3,4.78842,R,ugm-3,6.09036,R,ugm-3,50.04218,R,ugm-3,1.99701,R,ugm-3
04-01-2017,23:00,1.03807,R,ugm-3,2.19698,R,ugm-3,3.78866,R,ugm-3,55.82971,R,ugm-3,1.84933,R,ugm-3
04-01-2017,24:00,0.62926,R,ugm-3,1.86469,R,ugm-3,2.82954,R,ugm-3,55.38068,R,ugm-3,2.66356,R,ugm-3
05-01-2017,01:00,0.88350,R,ugm-3,1.40059,R,ugm-3,2.75528,R,ugm-3,54.48261,R,ugm-3,2.25822,R,ugm-3
05-01-2017,02:00,0.72593,R,ugm-3,1.24169,R,ugm-3,2.35477,R,ugm-3,53.68433,R,ugm-3,1.96463,R,ugm-3
05-01-2017,03:00,0.82041,R,ugm-3,0.66459,R,ugm-3,1.92254,R,ugm-3,55.08132,R,ugm-3,1.47414,R,ugm-3
05-01-2017,04:00,0.53665,R,ugm-3,0.61869,R,ugm-3,1.44155,R,ugm-3,56.12906,R,ugm-3,1.54665,R,ugm-3
05-01-2017,05:00,0.78892,R,ugm-3,0.56849,R,ugm-3,1.77815,R,ugm-3,54.18326,R,ugm-3,1.69433,R,ugm-3
05-01-2017,06:00,0.82041,R,ugm-3,0.90461,R,ugm-3,2.16256,R,ugm-3,58.17466,R,ugm-3,1.39963,R,ugm-3
05-01-2017,07:00,0.75742,R,ugm-3,1.09682,R,ugm-3,2.25818,R,ugm-3,59.17251,R,ugm-3,1.39963,R,ugm-3
05-01-2017,08:00,0.82041,R,ugm-3,0.95243,R,ugm-3,2.21037,R,ugm-3,54.38283,R,ugm-3,0.80958,R,ugm-3
05-01-2017,09:00,0.72562,R,ugm-3,0.61678,R,ugm-3,1.72938,R,ugm-3,54.28304,R,ugm-3,1.47281,R,ugm-3
05-01-2017,10:00,0.78861,R,ugm-3,1.04853,R,ugm-3,2.25771,R,ugm-3,54.83186,R,ugm-3,1.98836,R,ugm-3
05-01-2017,11:00,0.94670,R,ugm-3,0.90270,R,ugm-3,2.35429,R,ugm-3,50.54110,R,ugm-3,2.35623,R,ugm-3
05-01-2017,12:00,0.82041,R,ugm-3,1.19244,R,ugm-3,2.45039,R,ugm-3,64.01208,R,ugm-3,2.43073,R,ugm-3
05-01-2017,13:00,1.42005,R,ugm-3,5.17475,R,ugm-3,7.35213,R,ugm-3,67.05552,R,ugm-3,3.46050,R,ugm-3
05-01-2017,14:00,1.76711,R,ugm-3,6.99640,R,ugm-3,9.70594,R,ugm-3,62.51530,R,ugm-3,4.78629,R,ugm-3
05-01-2017,15:00,2.08299,R,ugm-3,15.54623,R,ugm-3,18.74011,R,ugm-3,55.43057,R,ugm-3,13.32911,R,ugm-3
05-01-2017,16:00,1.45155,R,ugm-3,13.82403,R,ugm-3,16.04970,R,ugm-3,41.71013,R,ugm-3,5.30184,R,ugm-3
05-01-2017,17:00,0.88340,R,ugm-3,13.25315,R,ugm-3,14.60768,R,ugm-3,39.81422,R,ugm-3,2.79794,R,ugm-3
05-01-2017,18:00,0.97820,R,ugm-3,14.30885,R,ugm-3,15.80873,R,ugm-3,40.81207,R,ugm-3,2.79794,R,ugm-3
05-01-2017,19:00,0.88309,R,ugm-3,17.62656,R,ugm-3,18.98061,R,ugm-3,39.61465,R,ugm-3,2.50324,R,ugm-3
05-01-2017,20:00,1.10448,R,ugm-3,25.79198,R,ugm-3,27.48549,R,ugm-3,30.53421,R,ugm-3,2.43073,R,ugm-3
05-01-2017,21:00,1.19928,R,ugm-3,39.14888,R,ugm-3,40.98774,R,ugm-3,20.30625,R,ugm-3,1.98836,R,ugm-3
05-01-2017,22:00,1.54634,R,ugm-3,59.23156,R,ugm-3,61.60258,R,ugm-3,12.07399,R,ugm-3,1.98836,R,ugm-3
05-01-2017,23:00,1.32494,R,ugm-3,46.59663,R,ugm-3,48.62818,R,ugm-3,26.09378,R,ugm-3,2.06220,R,ugm-3
05-01-2017,24:00,1.07299,R,ugm-3,19.30525,R,ugm-3,20.95048,R,ugm-3,50.64089,R,ugm-3,1.98836,R,ugm-3
06-01-2017,01:00,0.92758,R,ugm-3,10.76291,R,ugm-3,12.18517,R,ugm-3,,,,1.95399,R,ugm-3
06-01-2017,02:00,1.16997,R,ugm-3,21.72696,R,ugm-3,23.52088,R,ugm-3,47.54755,R,ugm-3,2.05155,R,ugm-3
06-01-2017,03:00,0.98007,R,ugm-3,23.22062,R,ugm-3,24.72337,R,ugm-3,43.50626,R,ugm-3,2.56378,R,ugm-3
06-01-2017,04:00,0.79048,R,ugm-3,19.18238,R,ugm-3,20.39442,R,ugm-3,46.79917,R,ugm-3,2.41743,R,ugm-3
06-01-2017,05:00,1.01187,R,ugm-3,12.83048,R,ugm-3,14.38200,R,ugm-3,52.63659,R,ugm-3,2.49060,R,ugm-3
06-01-2017,06:00,0.79017,R,ugm-3,12.92946,R,ugm-3,14.14103,R,ugm-3,43.55615,R,ugm-3,3.58822,R,ugm-3
06-01-2017,07:00,1.26476,R,ugm-3,13.98181,R,ugm-3,15.92108,R,ugm-3,43.50626,R,ugm-3,3.73457,R,ugm-3
06-01-2017,08:00,1.01187,R,ugm-3,16.48527,R,ugm-3,18.03679,R,ugm-3,42.40863,R,ugm-3,3.58822,R,ugm-3
06-01-2017,09:00,0.98007,R,ugm-3,16.87112,R,ugm-3,18.37387,R,ugm-3,43.95529,R,ugm-3,2.71013,R,ugm-3
06-01-2017,10:00,1.16997,R,ugm-3,15.28135,R,ugm-3,17.07528,R,ugm-3,45.35228,R,ugm-3,1.75686,R,ugm-3
06-01-2017,11:00,1.35956,R,ugm-3,16.81805,R,ugm-3,18.90267,R,ugm-3,44.55400,R,ugm-3,1.97705,R,ugm-3
06-01-2017,12:00,1.23327,R,ugm-3,15.08819,R,ugm-3,16.97918,R,ugm-3,43.60605,R,ugm-3,2.71013,R,ugm-3
06-01-2017,13:00,1.23296,R,ugm-3,14.17497,R,ugm-3,16.06548,R,ugm-3,45.30239,R,ugm-3,2.34359,R,ugm-3
06-01-2017,14:00,1.13847,R,ugm-3,13.69398,R,ugm-3,15.43961,R,ugm-3,45.00304,R,ugm-3,2.27108,R,ugm-3
06-01-2017,15:00,1.13816,R,ugm-3,14.03153,R,ugm-3,15.77669,R,ugm-3,41.36088,R,ugm-3,2.41743,R,ugm-3
06-01-2017,16:00,0.88496,R,ugm-3,13.40949,R,ugm-3,14.76641,R,ugm-3,42.20906,R,ugm-3,2.19790,R,ugm-3
06-01-2017,17:00,0.94857,R,ugm-3,11.58067,R,ugm-3,13.03512,R,ugm-3,44.55400,R,ugm-3,2.19790,R,ugm-3
06-01-2017,18:00,1.04368,R,ugm-3,8.74108,R,ugm-3,10.34137,R,ugm-3,48.64519,R,ugm-3,1.83136,R,ugm-3
06-01-2017,19:00,1.07517,R,ugm-3,12.20414,R,ugm-3,13.85272,R,ugm-3,37.51916,R,ugm-3,2.19790,R,ugm-3
06-01-2017,20:00,0.79048,R,ugm-3,8.21514,R,ugm-3,9.42719,R,ugm-3,45.85121,R,ugm-3,2.78330,R,ugm-3
06-01-2017,21:00,0.85378,R,ugm-3,6.33850,R,ugm-3,7.64761,R,ugm-3,47.24820,R,ugm-3,2.12473,R,ugm-3
06-01-2017,22:00,1.01187,R,ugm-3,5.75949,R,ugm-3,7.31101,R,ugm-3,39.11572,R,ugm-3,1.68502,R,ugm-3
06-01-2017,23:00,0.85347,R,ugm-3,6.14678,R,ugm-3,7.45540,R,ugm-3,40.76217,R,ugm-3,2.49060,R,ugm-3
06-01-2017,24:00,0.85347,R,ugm-3,5.95457,R,ugm-3,7.26320,R,ugm-3,44.45422,R,ugm-3,1.97771,R,ugm-3
07-01-2017,01:00,0.88808,R,ugm-3,8.91990,R,ugm-3,10.28160,R,ugm-3,39.44834,R,ugm-3,1.36061,R,ugm-3
07-01-2017,02:00,1.04617,R,ugm-3,10.29977,R,ugm-3,11.90388,R,ugm-3,35.12432,R,ugm-3,2.23516,R,ugm-3
07-01-2017,03:00,0.88808,R,ugm-3,11.36216,R,ugm-3,12.72386,R,ugm-3,34.32604,R,ugm-3,2.62365,R,ugm-3
07-01-2017,04:00,1.17340,R,ugm-3,10.63493,R,ugm-3,12.43412,R,ugm-3,34.17636,R,ugm-3,2.33095,R,ugm-3
07-01-2017,05:00,0.95169,R,ugm-3,5.77001,R,ugm-3,7.22925,R,ugm-3,48.24605,R,ugm-3,2.18526,R,ugm-3
07-01-2017,06:00,0.72936,R,ugm-3,3.41190,R,ugm-3,4.53023,R,ugm-3,59.02283,R,ugm-3,1.89390,R,ugm-3
07-01-2017,07:00,1.04649,R,ugm-3,3.74515,R,ugm-3,5.34974,R,ugm-3,53.28519,R,ugm-3,2.54914,R,ugm-3
07-01-2017,08:00,0.91957,R,ugm-3,3.93975,R,ugm-3,5.34974,R,ugm-3,50.14196,R,ugm-3,2.91369,R,ugm-3
07-01-2017,09:00,0.82447,R,ugm-3,5.29093,R,ugm-3,6.55509,R,ugm-3,49.54325,R,ugm-3,1.74888,R,ugm-3
07-01-2017,10:00,1.01530,R,ugm-3,8.66028,R,ugm-3,10.21705,R,ugm-3,41.21121,R,ugm-3,1.74755,R,ugm-3
07-01-2017,11:00,1.14159,R,ugm-3,6.63590,R,ugm-3,8.38631,R,ugm-3,51.73852,R,ugm-3,2.54981,R,ugm-3
07-01-2017,12:00,1.17340,R,ugm-3,4.61056,R,ugm-3,6.40974,R,ugm-3,59.47186,R,ugm-3,2.40412,R,ugm-3
07-01-2017,13:00,1.07798,R,ugm-3,3.74515,R,ugm-3,5.39803,R,ugm-3,63.26369,R,ugm-3,2.03892,R,ugm-3
07-01-2017,14:00,1.20489,R,ugm-3,9.91201,R,ugm-3,11.75948,R,ugm-3,51.83831,R,ugm-3,2.33095,R,ugm-3
07-01-2017,15:00,1.42691,R,ugm-3,17.62034,R,ugm-3,19.80824,R,ugm-3,46.44992,R,ugm-3,2.33028,R,ugm-3
07-01-2017,16:00,1.55414,R,ugm-3,25.71452,R,ugm-3,28.09749,R,ugm-3,38.71658,R,ugm-3,2.55047,R,ugm-3
07-01-2017,17:00,0.98318,R,ugm-3,21.67388,R,ugm-3,23.18141,R,ugm-3,41.85981,R,ugm-3,2.18460,R,ugm-3
07-01-2017,18:00,0.76085,R,ugm-3,13.05042,R,ugm-3,14.21705,R,ugm-3,43.85551,R,ugm-3,2.33028,R,ugm-3
07-01-2017,19:00,0.85627,R,ugm-3,14.73581,R,ugm-3,16.04874,R,ugm-3,49.64304,R,ugm-3,2.84051,R,ugm-3
07-01-2017,20:00,0.79266,R,ugm-3,8.23092,R,ugm-3,9.44632,R,ugm-3,58.77337,R,ugm-3,2.18526,R,ugm-3
07-01-2017,21:00,0.88808,R,ugm-3,6.78316,R,ugm-3,8.14486,R,ugm-3,59.57165,R,ugm-3,2.03958,R,ugm-3
07-01-2017,22:00,0.63394,R,ugm-3,4.71479,R,ugm-3,5.68682,R,ugm-3,64.16176,R,ugm-3,,,
07-01-2017,23:00,0.91957,R,ugm-3,2.87975,R,ugm-3,4.28974,R,ugm-3,69.89939,R,ugm-3,,,
07-01-2017,24:00,0.57064,R,ugm-3,5.63183,R,ugm-3,6.50680,R,ugm-3,64.46111,R,ugm-3,1.65064,R,ugm-3
08-01-2017,01:00,0.97414,R,ugm-3,3.39979,R,ugm-3,4.89345,R,ugm-3,68.98470,R,ugm-3,2.51366,R,ugm-3
08-01-2017,02:00,0.85814,R,ugm-3,4.09275,R,ugm-3,5.40855,R,ugm-3,68.11989,R,ugm-3,1.64355,R,ugm-3
08-01-2017,03:00,0.82571,R,ugm-3,3.03179,R,ugm-3,4.29787,R,ugm-3,68.45251,R,ugm-3,0.87011,R,ugm-3
08-01-2017,04:00,0.66699,R,ugm-3,3.27516,R,ugm-3,4.29787,R,ugm-3,65.05982,R,ugm-3,1.52270,R,ugm-3
08-01-2017,05:00,0.76241,R,ugm-3,2.11475,R,ugm-3,3.28376,R,ugm-3,65.95789,R,ugm-3,1.81274,R,ugm-3
08-01-2017,06:00,0.76272,R,ugm-3,2.93521,R,ugm-3,4.10470,R,ugm-3,60.46971,R,ugm-3,1.88525,R,ugm-3
08-01-2017,07:00,0.73061,R,ugm-3,5.54386,R,ugm-3,6.66411,R,ugm-3,54.78197,R,ugm-3,2.03027,R,ugm-3
08-01-2017,08:00,1.01655,R,ugm-3,4.67080,R,ugm-3,6.22949,R,ugm-3,56.02928,R,ugm-3,2.68285,R,ugm-3
08-01-2017,09:00,0.76241,R,ugm-3,5.25364,R,ugm-3,6.42265,R,ugm-3,42.85766,R,ugm-3,2.46532,R,ugm-3
08-01-2017,10:00,0.98474,R,ugm-3,5.49222,R,ugm-3,7.00214,R,ugm-3,39.26540,R,ugm-3,2.61034,R,ugm-3
08-01-2017,11:00,1.23919,R,ugm-3,4.95720,R,ugm-3,6.85727,R,ugm-3,40.41293,R,ugm-3,2.46532,R,ugm-3
08-01-2017,12:00,1.39822,R,ugm-3,7.61079,R,ugm-3,9.75471,R,ugm-3,41.51056,R,ugm-3,2.46532,R,ugm-3
08-01-2017,13:00,1.30281,R,ugm-3,7.99855,R,ugm-3,9.99616,R,ugm-3,39.21551,R,ugm-3,2.97289,R,ugm-3
08-01-2017,14:00,0.95294,R,ugm-3,8.39014,R,ugm-3,9.85129,R,ugm-3,50.44132,R,ugm-3,2.82787,R,ugm-3
08-01-2017,15:00,1.14377,R,ugm-3,9.78770,R,ugm-3,11.54146,R,ugm-3,49.94239,R,ugm-3,2.17529,R,ugm-3
08-01-2017,16:00,0.92113,R,ugm-3,9.21156,R,ugm-3,10.62394,R,ugm-3,50.99014,R,ugm-3,1.88525,R,ugm-3
08-01-2017,17:00,0.85783,R,ugm-3,11.19195,R,ugm-3,12.50727,R,ugm-3,49.14411,R,ugm-3,2.03027,R,ugm-3
08-01-2017,18:00,0.69911,R,ugm-3,8.44130,R,ugm-3,9.51325,R,ugm-3,47.44777,R,ugm-3,1.88525,R,ugm-3
08-01-2017,19:00,0.85783,R,ugm-3,6.16973,R,ugm-3,7.48505,R,ugm-3,56.77767,R,ugm-3,1.74023,R,ugm-3
08-01-2017,20:00,0.82602,R,ugm-3,4.33516,R,ugm-3,5.60171,R,ugm-3,57.72562,R,ugm-3,1.88525,R,ugm-3
08-01-2017,21:00,0.95294,R,ugm-3,4.14056,R,ugm-3,5.60171,R,ugm-3,41.95959,R,ugm-3,2.61034,R,ugm-3
08-01-2017,22:00,0.79453,R,ugm-3,4.33516,R,ugm-3,5.55342,R,ugm-3,50.94024,R,ugm-3,2.97289,R,ugm-3
08-01-2017,23:00,0.88964,R,ugm-3,5.34831,R,ugm-3,6.71240,R,ugm-3,45.40218,R,ugm-3,3.19042,R,ugm-3
08-01-2017,24:00,1.04836,R,ugm-3,5.58785,R,ugm-3,7.19530,R,ugm-3,45.90110,R,ugm-3,2.90038,R,ugm-3
09-01-2017,01:00,0.72219,R,ugm-3,3.98948,R,ugm-3,5.09681,R,ugm-3,51.95472,R,ugm-3,0.96236,R,ugm-3
09-01-2017,02:00,0.70098,R,ugm-3,2.69902,R,ugm-3,3.77384,R,ugm-3,57.52605,R,ugm-3,1.15395,R,ugm-3
09-01-2017,03:00,0.76460,R,ugm-3,2.45661,R,ugm-3,3.62897,R,ugm-3,60.36993,R,ugm-3,1.15350,R,ugm-3
09-01-2017,04:00,0.86033,R,ugm-3,1.63232,R,ugm-3,2.95147,R,ugm-3,62.66498,R,ugm-3,1.73092,R,ugm-3
09-01-2017,05:00,0.86033,R,ugm-3,1.53574,R,ugm-3,2.85488,R,ugm-3,59.32218,R,ugm-3,1.51472,R,ugm-3
09-01-2017,06:00,0.70098,R,ugm-3,1.29620,R,ugm-3,2.37102,R,ugm-3,64.36133,R,ugm-3,1.65841,R,ugm-3
09-01-2017,07:00,0.57376,R,ugm-3,1.49079,R,ugm-3,2.37054,R,ugm-3,66.05767,R,ugm-3,1.51472,R,ugm-3
09-01-2017,08:00,0.70098,R,ugm-3,1.58642,R,ugm-3,2.66124,R,ugm-3,69.50025,R,ugm-3,1.15350,R,ugm-3
09-01-2017,09:00,0.70098,R,ugm-3,1.92541,R,ugm-3,3.00023,R,ugm-3,71.29638,R,ugm-3,0.64926,R,ugm-3
09-01-2017,10:00,0.66918,R,ugm-3,2.74778,R,ugm-3,3.77384,R,ugm-3,70.54800,R,ugm-3,0.72110,R,ugm-3
09-01-2017,11:00,0.98786,R,ugm-3,4.72722,R,ugm-3,6.24192,R,ugm-3,69.05122,R,ugm-3,1.44154,R,ugm-3
09-01-2017,12:00,0.76491,R,ugm-3,4.77838,R,ugm-3,5.95122,R,ugm-3,70.34843,R,ugm-3,1.15350,R,ugm-3
09-01-2017,13:00,0.73279,R,ugm-3,4.24718,R,ugm-3,5.37078,R,ugm-3,72.49380,R,ugm-3,2.23582,R,ugm-3
09-01-2017,14:00,0.95637,R,ugm-3,4.72722,R,ugm-3,6.19363,R,ugm-3,73.64133,R,ugm-3,1.58590,R,ugm-3
09-01-2017,15:00,1.05147,R,ugm-3,6.66219,R,ugm-3,8.27443,R,ugm-3,70.09896,R,ugm-3,1.51339,R,ugm-3
09-01-2017,16:00,1.21082,R,ugm-3,8.49819,R,ugm-3,10.35475,R,ugm-3,65.99115,R,ugm-3,2.23516,R,ugm-3
09-01-2017,17:00,0.92394,R,ugm-3,12.42217,R,ugm-3,13.83885,R,ugm-3,60.36993,R,ugm-3,2.59571,R,ugm-3
09-01-2017,18:00,0.86064,R,ugm-3,10.92229,R,ugm-3,12.24191,R,ugm-3,60.32003,R,ugm-3,2.45202,R,ugm-3
09-01-2017,19:00,0.79703,R,ugm-3,11.79391,R,ugm-3,13.01600,R,ugm-3,56.92734,R,ugm-3,2.66888,R,ugm-3
09-01-2017,20:00,0.92394,R,ugm-3,12.56704,R,ugm-3,13.98372,R,ugm-3,55.18111,R,ugm-3,2.09147,R,ugm-3
09-01-2017,21:00,1.05179,R,ugm-3,8.93520,R,ugm-3,10.54792,R,ugm-3,57.97509,R,ugm-3,1.58656,R,ugm-3
09-01-2017,22:00,0.82852,R,ugm-3,7.97130,R,ugm-3,9.24168,R,ugm-3,56.37853,R,ugm-3,2.23449,R,ugm-3
09-01-2017,23:00,0.73279,R,ugm-3,6.71527,R,ugm-3,7.83886,R,ugm-3,57.22670,R,ugm-3,2.16398,R,ugm-3
09-01-2017,24:00,0.66918,R,ugm-3,5.98995,R,ugm-3,7.01601,R,ugm-3,58.57380,R,ugm-3,2.09147,R,ugm-3
10-01-2017,01:00,0.51098,R,ugm-3,4.51733,R,ugm-3,5.30081,R,ugm-3,62.26584,R,ugm-3,2.20056,R,ugm-3
10-01-2017,02:00,0.92612,R,ugm-3,2.84676,R,ugm-3,4.26679,R,ugm-3,65.92462,R,ugm-3,2.39215,R,ugm-3
10-01-2017,03:00,0.63862,R,ugm-3,2.55988,R,ugm-3,3.53908,R,ugm-3,65.95789,R,ugm-3,1.86662,R,ugm-3
10-01-2017,04:00,0.76647,R,ugm-3,2.07315,R,ugm-3,3.24838,R,ugm-3,67.05552,R,ugm-3,1.65109,R,ugm-3
10-01-2017,05:00,0.73435,R,ugm-3,2.21898,R,ugm-3,3.34496,R,ugm-3,66.95574,R,ugm-3,1.93714,R,ugm-3
10-01-2017,06:00,0.67074,R,ugm-3,1.78293,R,ugm-3,2.81138,R,ugm-3,67.95359,R,ugm-3,2.15267,R,ugm-3
10-01-2017,07:00,0.86220,R,ugm-3,3.28376,R,ugm-3,4.60578,R,ugm-3,66.50670,R,ugm-3,2.65558,R,ugm-3
10-01-2017,08:00,0.54320,R,ugm-3,6.05163,R,ugm-3,6.88452,R,ugm-3,64.66068,R,ugm-3,2.22518,R,ugm-3
10-01-2017,09:00,0.79827,R,ugm-3,8.08462,R,ugm-3,9.30862,R,ugm-3,62.91444,R,ugm-3,1.50807,R,ugm-3
10-01-2017,10:00,0.60681,R,ugm-3,8.52353,R,ugm-3,9.45397,R,ugm-3,62.51530,R,ugm-3,1.22069,R,ugm-3
10-01-2017,11:00,1.02185,R,ugm-3,9.09920,R,ugm-3,10.66601,R,ugm-3,62.16606,R,ugm-3,1.72293,R,ugm-3
10-01-2017,12:00,0.86188,R,ugm-3,7.84125,R,ugm-3,9.16279,R,ugm-3,62.16606,R,ugm-3,2.29636,R,ugm-3
10-01-2017,13:00,1.18119,R,ugm-3,6.04350,R,ugm-3,7.85464,R,ugm-3,64.66068,R,ugm-3,1.93847,R,ugm-3
10-01-2017,14:00,1.14939,R,ugm-3,8.66123,R,ugm-3,10.42360,R,ugm-3,62.73150,R,ugm-3,1.65109,R,ugm-3
10-01-2017,15:00,1.05366,R,ugm-3,12.25052,R,ugm-3,13.86610,R,ugm-3,57.67573,R,ugm-3,1.93780,R,ugm-3
10-01-2017,16:00,0.89400,R,ugm-3,12.73725,R,ugm-3,14.10803,R,ugm-3,55.72992,R,ugm-3,2.22518,R,ugm-3
10-01-2017,17:00,0.83008,R,ugm-3,15.01695,R,ugm-3,16.28972,R,ugm-3,52.18756,R,ugm-3,1.86662,R,ugm-3
10-01-2017,18:00,0.76615,R,ugm-3,10.70331,R,ugm-3,11.87806,R,ugm-3,59.12261,R,ugm-3,1.57858,R,ugm-3
10-01-2017,19:00,0.83008,R,ugm-3,9.97512,R,ugm-3,11.24789,R,ugm-3,61.06842,R,ugm-3,1.86596,R,ugm-3
10-01-2017,20:00,0.89400,R,ugm-3,8.66506,R,ugm-3,10.03584,R,ugm-3,63.96219,R,ugm-3,1.79411,R,ugm-3
10-01-2017,21:00,0.79827,R,ugm-3,8.81184,R,ugm-3,10.03584,R,ugm-3,64.61079,R,ugm-3,2.15267,R,ugm-3
10-01-2017,22:00,0.70223,R,ugm-3,7.84412,R,ugm-3,8.92086,R,ugm-3,65.80821,R,ugm-3,2.08082,R,ugm-3
10-01-2017,23:00,0.83008,R,ugm-3,7.35691,R,ugm-3,8.62968,R,ugm-3,64.06197,R,ugm-3,1.22002,R,ugm-3
10-01-2017,24:00,0.73435,R,ugm-3,6.14582,R,ugm-3,7.27180,R,ugm-3,64.51100,R,ugm-3,0.64660,R,ugm-3
11-01-2017,01:00,0.68352,R,ugm-3,4.97505,R,ugm-3,6.02310,R,ugm-3,64.79373,R,ugm-3,1.04662,R,ugm-3